When you browse on this site, cookies collect data to enhance your experience and personalize the content and advertising you see.
Visit our Privacy Policy to learn more. By continuing to use the site, you agree to this use of cookies and data.
  • In Netherlands
  • List of Countries
  • For 7 days
  • Water Temperature
  • Weather Map
  • Weather Widgets
  • user-avatar
    Login

    Hourly Weather Ruse

    Today, 20 August, Tuesday

    Time Temperature Precipitation Wind Pressure Humidity
    00:00 +21°C° 0 mm 2 mps 758 mmHg 49%
    01:00 +20°C° 0 mm 2 mps 759 mmHg 52%
    02:00 +20°C° 0 mm 2 mps 759 mmHg 56%
    03:00 +19°C° 0 mm 2 mps 759 mmHg 56%
    04:00 +20°C° 0 mm 1 mps 759 mmHg 57%
    05:00 +20°C° 0 mm 1 mps 759 mmHg 57%
    06:00 +22°C° 0 mm 1 mps 759 mmHg 49%
    07:00 +24°C° 0 mm 1 mps 759 mmHg 41%
    08:00 +27°C° 0 mm 2 mps 759 mmHg 33%
    09:00 +29°C° 0 mm 2 mps 759 mmHg 29%
    10:00 +31°C° 0 mm 3 mps 759 mmHg 25%
    11:00 +34°C° 0 mm 4 mps 759 mmHg 21%
    12:00 +35°C° 0 mm 4 mps 759 mmHg 19%
    13:00 +36°C° 0 mm 4 mps 759 mmHg 18%
    14:00 +37°C° 0 mm 5 mps 758 mmHg 16%
    15:00 +37°C° 0 mm 4 mps 758 mmHg 16%
    16:00 +37°C° 0 mm 4 mps 758 mmHg 16%
    17:00 +36°C° 0 mm 4 mps 758 mmHg 16%
    18:00 +34°C° 0 mm 3 mps 758 mmHg 20%
    19:00 +30°C° 0 mm 3 mps 758 mmHg 24%
    20:00 +27°C° 0 mm 2 mps 758 mmHg 28%
    21:00 +26°C° 0 mm 2 mps 758 mmHg 33%
    22:00 +25°C° 0 mm 2 mps 759 mmHg 38%
    23:00 +23°C° 0 mm 1 mps 759 mmHg 42%

    Tomorrow, 21 August, Wednesday

    Time Temperature Precipitation Wind Pressure Humidity
    00:00 +23°C° 0 mm 1 mps 759 mmHg 45%
    01:00 +22°C° 0 mm 1 mps 759 mmHg 48%
    02:00 +21°C° 0 mm 1 mps 759 mmHg 51%
    03:00 +21°C° 0 mm 1 mps 758 mmHg 52%
    04:00 +18°C° 0 mm 0 mps 758 mmHg 54%
    05:00 +18°C° 0 mm 0 mps 758 mmHg 55%
    06:00 +22°C° 0 mm 1 mps 758 mmHg 49%
    07:00 +25°C° 0 mm 1 mps 758 mmHg 44%
    08:00 +27°C° 0 mm 1 mps 759 mmHg 38%
    09:00 +29°C° 0 mm 2 mps 758 mmHg 34%
    10:00 +31°C° 0 mm 2 mps 758 mmHg 31%
    11:00 +35°C° 0 mm 3 mps 758 mmHg 27%
    12:00 +36°C° 0 mm 3 mps 758 mmHg 26%
    13:00 +37°C° 0 mm 3 mps 757 mmHg 24%
    14:00 +38°C° 0 mm 3 mps 757 mmHg 22%
    15:00 +38°C° 0 mm 3 mps 756 mmHg 22%
    16:00 +38°C° 0 mm 3 mps 756 mmHg 22%
    17:00 +38°C° 0 mm 3 mps 756 mmHg 22%
    18:00 +35°C° 0 mm 3 mps 756 mmHg 25%
    19:00 +32°C° 0 mm 2 mps 756 mmHg 28%
    20:00 +30°C° 0 mm 2 mps 757 mmHg 31%
    21:00 +28°C° 0 mm 2 mps 757 mmHg 34%
    22:00 +27°C° 0 mm 1 mps 757 mmHg 36%
    23:00 +26°C° 0 mm 1 mps 757 mmHg 39%

    Day after tomorrow, 22 August, Thursday

    Time Temperature Precipitation Wind Pressure Humidity
    00:00 +25°C° 0 mm 1 mps 757 mmHg 42%
    01:00 +24°C° 0 mm 1 mps 757 mmHg 45%
    02:00 +23°C° 0 mm 1 mps 757 mmHg 48%
    03:00 +23°C° 0 mm 1 mps 757 mmHg 50%
    04:00 +21°C° 0 mm 0 mps 757 mmHg 52%
    05:00 +20°C° 0 mm 0 mps 757 mmHg 53%
    06:00 +24°C° 0 mm 1 mps 758 mmHg 48%
    07:00 +26°C° 0 mm 1 mps 758 mmHg 42%
    08:00 +29°C° 0 mm 1 mps 758 mmHg 36%
    09:00 +31°C° 0 mm 2 mps 758 mmHg 32%
    10:00 +34°C° 0 mm 3 mps 758 mmHg 28%
    11:00 +36°C° 0 mm 4 mps 758 mmHg 24%
    12:00 +37°C° 0 mm 4 mps 758 mmHg 22%
    13:00 +38°C° 0 mm 4 mps 757 mmHg 20%
    14:00 +40°C° 0 mm 4 mps 757 mmHg 18%
    15:00 +40°C° 0 mm 5 mps 757 mmHg 19%
    16:00 +39°C° 0 mm 5 mps 757 mmHg 20%
    17:00 +39°C° 0 mm 6 mps 757 mmHg 21%
    18:00 +36°C° 0 mm 5 mps 757 mmHg 25%
    19:00 +33°C° 0 mm 4 mps 757 mmHg 29%
    20:00 +30°C° 0 mm 3 mps 758 mmHg 33%
    21:00 +29°C° 0 mm 3 mps 758 mmHg 36%
    22:00 +28°C° 0 mm 3 mps 758 mmHg 40%
    23:00 +27°C° 0 mm 4 mps 759 mmHg 44%

    23 August, Friday

    Time Temperature Precipitation Wind Pressure Humidity
    00:00 +26°C° 0 mm 4 mps 759 mmHg 49%
    01:00 +25°C° 0 mm 3 mps 759 mmHg 54%
    02:00 +25°C° 0 mm 3 mps 759 mmHg 59%
    03:00 +24°C° 0 mm 3 mps 759 mmHg 64%
    04:00 +23°C° 0 mm 2 mps 759 mmHg 70%
    05:00 +21°C° 0 mm 2 mps 759 mmHg 76%
    06:00 +23°C° 0 mm 2 mps 759 mmHg 71%
    07:00 +25°C° 0 mm 3 mps 760 mmHg 65%
    08:00 +26°C° 0 mm 3 mps 760 mmHg 60%
    09:00 +28°C° 0 mm 3 mps 760 mmHg 51%
    10:00 +32°C° 0 mm 4 mps 760 mmHg 42%
    11:00 +34°C° 0 mm 4 mps 760 mmHg 33%
    12:00 +36°C° 0 mm 4 mps 759 mmHg 30%
    13:00 +37°C° 0 mm 5 mps 759 mmHg 27%
    14:00 +39°C° 0 mm 5 mps 759 mmHg 24%
    15:00 +39°C° 0 mm 5 mps 758 mmHg 24%
    16:00 +39°C° 0 mm 6 mps 758 mmHg 25%
    17:00 +38°C° 0 mm 6 mps 758 mmHg 25%
    18:00 +35°C° 0 mm 5 mps 758 mmHg 29%
    19:00 +33°C° 0 mm 4 mps 758 mmHg 33%
    20:00 +29°C° 0 mm 3 mps 759 mmHg 37%
    21:00 +28°C° 0 mm 3 mps 759 mmHg 40%
    22:00 +27°C° 0 mm 3 mps 759 mmHg 43%
    23:00 +26°C° 0 mm 3 mps 759 mmHg 45%

    24 August, Saturday

    Time Temperature Precipitation Wind Pressure Humidity
    00:00 +26°C° 0 mm 3 mps 759 mmHg 48%
    01:00 +25°C° 0 mm 2 mps 759 mmHg 51%
    02:00 +25°C° 0 mm 2 mps 759 mmHg 54%
    03:00 +24°C° 0 mm 2 mps 760 mmHg 57%
    04:00 +23°C° 0 mm 2 mps 760 mmHg 60%
    05:00 +23°C° 0 mm 2 mps 760 mmHg 63%
    06:00 +24°C° 0 mm 3 mps 760 mmHg 59%
    07:00 +26°C° 0 mm 4 mps 760 mmHg 54%
    08:00 +28°C° 0 mm 5 mps 760 mmHg 50%
    09:00 +30°C° 0 mm 5 mps 760 mmHg 45%
    10:00 +33°C° 0 mm 5 mps 760 mmHg 40%
    11:00 +35°C° 0 mm 6 mps 760 mmHg 34%
    12:00 +36°C° 0 mm 6 mps 760 mmHg 31%
    13:00 +37°C° 0 mm 5 mps 759 mmHg 27%
    14:00 +39°C° 0 mm 5 mps 759 mmHg 24%
    15:00 +39°C° 0 mm 5 mps 758 mmHg 23%
    16:00 +39°C° 0 mm 5 mps 758 mmHg 23%
    17:00 +39°C° 0 mm 6 mps 758 mmHg 22%
    18:00 +35°C° 0 mm 5 mps 758 mmHg 25%
    19:00 +33°C° 0 mm 5 mps 758 mmHg 28%
    20:00 +30°C° 0 mm 4 mps 758 mmHg 31%
    21:00 +29°C° 0 mm 4 mps 758 mmHg 40%
    22:00 +27°C° 0 mm 4 mps 759 mmHg 49%
    23:00 +26°C° 0 mm 3 mps 759 mmHg 57%

    25 August, Sunday

    Time Temperature Precipitation Wind Pressure Humidity
    00:00 +25°C° 0 mm 3 mps 759 mmHg 61%
    01:00 +24°C° 0 mm 2 mps 759 mmHg 64%
    02:00 +23°C° 0 mm 2 mps 759 mmHg 67%
    03:00 +21°C° 0 mm 2 mps 758 mmHg 68%
    04:00 +21°C° 0 mm 2 mps 758 mmHg 69%
    05:00 +20°C° 0 mm 2 mps 758 mmHg 71%
    06:00 +23°C° 0 mm 2 mps 758 mmHg 63%
    07:00 +25°C° 0 mm 3 mps 758 mmHg 56%
    08:00 +26°C° 0 mm 3 mps 759 mmHg 49%
    09:00 +29°C° 0 mm 4 mps 758 mmHg 42%
    10:00 +32°C° 0 mm 4 mps 758 mmHg 35%
    11:00 +35°C° 0 mm 4 mps 758 mmHg 27%
    12:00 +36°C° 0 mm 4 mps 757 mmHg 25%
    13:00 +37°C° 0 mm 4 mps 757 mmHg 22%
    14:00 +38°C° 0 mm 4 mps 756 mmHg 19%
    15:00 +38°C° 0 mm 4 mps 756 mmHg 19%
    16:00 +38°C° 0 mm 4 mps 756 mmHg 18%
    17:00 +38°C° 0 mm 4 mps 755 mmHg 18%
    18:00 +36°C° 0 mm 4 mps 756 mmHg 23%
    19:00 +33°C° 0 mm 4 mps 756 mmHg 29%
    20:00 +29°C° 0 mm 3 mps 756 mmHg 34%
    21:00 +28°C° 0 mm 3 mps 756 mmHg 43%
    22:00 +27°C° 0 mm 3 mps 757 mmHg 52%
    23:00 +25°C° 0 mm 3 mps 757 mmHg 62%
    Show more